Location: Winterland
(47.1574°N, 55.3067°W)
Time: 01:52:23
(UTC+00:00)

ISS - Visible Passes

Search period start: 19 August 2022 00:00
Search period end: 29 August 2022 00:00
Orbit: 412 x 420 km, 51.6° (Epoch: 18 August)

Date Brightness Start Highest point End Pass type
(mag) Time Alt. Az. Time Alt. Az. Time Alt. Az.
22 Aug -1.0 08:10:48 10° SSE 08:12:24 13° SE 08:14:01 10° ESE visible
24 Aug -2.2 08:08:34 10° SSW 08:11:31 29° SE 08:14:30 10° E visible
25 Aug -1.6 07:21:12 13° S 07:23:02 19° SE 07:25:29 10° E visible
26 Aug -1.1 06:34:37 12° SE 06:34:37 12° SE 06:35:56 10° ESE visible
26 Aug -3.6 08:07:30 10° SW 08:10:46 66° SSE 08:14:06 10° ENE visible
27 Aug -3.0 07:20:51 28° SSW 07:22:10 42° SE 07:25:22 10° ENE visible
28 Aug -2.1 06:34:09 26° ESE 06:34:09 26° ESE 06:36:30 10° E visible
28 Aug -3.5 08:07:02 12° WSW 08:10:09 64° NNW 08:13:29 10° ENE visible
